Time,TemperatureF,DewpointF,PressureIn,WindDirection,WindDirectionDegrees,WindSpeedMPH,WindSpeedGustMPH,Humidity,HourlyPrecipIn,Conditions,Clouds,dailyrainin,SoftwareType,DateUTC
2013-10-17 00:14:00,60.0,59.0,29.88,SSE,157,1.0,5.0,95,0.00,,,0.00,,2013-10-17 04:14:00,
2013-10-17 00:24:00,60.0,59.0,29.88,SSE,152,1.0,4.0,95,0.00,,,0.00,,2013-10-17 04:24:00,
2013-10-17 00:43:00,60.0,59.0,29.88,South,179,1.0,4.0,95,0.00,,,0.00,,2013-10-17 04:43:00,
2013-10-17 00:54:00,60.0,59.0,29.88,SE,135,0.0,3.0,95,0.00,,,0.00,,2013-10-17 04:54:00,
2013-10-17 01:13:00,60.0,59.0,29.88,South,171,1.0,5.0,95,0.00,,,0.00,,2013-10-17 05:13:00,
2013-10-17 01:23:00,60.0,59.0,29.88,South,169,2.0,5.0,95,0.00,,,0.00,,2013-10-17 05:23:00,
2013-10-17 01:42:00,60.0,59.0,29.87,SE,142,1.0,5.0,95,0.00,,,0.00,,2013-10-17 05:42:00,
2013-10-17 01:52:00,60.0,59.0,29.86,SE,130,2.0,6.0,95,0.00,,,0.00,,2013-10-17 05:52:00,
2013-10-17 02:13:00,60.0,59.0,29.87,ESE,114,1.0,6.0,95,0.00,,,0.00,,2013-10-17 06:13:00,
2013-10-17 02:22:00,60.0,59.0,29.87,SE,142,0.0,4.0,95,0.00,,,0.00,,2013-10-17 06:22:00,
2013-10-17 02:42:00,60.0,59.0,29.86,SSW,207,1.0,3.0,95,0.00,,,0.00,,2013-10-17 06:42:00,
2013-10-17 02:52:00,60.0,59.0,29.86,SSW,203,1.0,2.0,96,0.00,,,0.00,,2013-10-17 06:52:00,
2013-10-17 03:02:00,60.0,59.0,29.86,SSW,203,1.0,2.0,96,0.00,,,0.00,,2013-10-17 07:02:00,
2013-10-17 03:11:00,60.0,59.0,29.86,SE,125,0.0,5.0,96,0.00,,,0.00,,2013-10-17 07:11:00,
2013-10-17 03:22:00,59.0,58.0,29.85,South,178,2.0,6.0,96,0.00,,,0.00,,2013-10-17 07:22:00,
2013-10-17 03:43:00,60.0,59.0,29.85,SE,135,0.0,6.0,96,0.00,,,0.00,,2013-10-17 07:43:00,
2013-10-17 03:52:00,60.0,59.0,29.84,South,182,2.0,7.0,96,0.00,,,0.00,,2013-10-17 07:52:00,
2013-10-17 04:12:00,60.0,59.0,29.83,SE,126,2.0,6.0,96,0.00,,,0.00,,2013-10-17 08:12:00,
2013-10-17 04:22:00,60.0,59.0,29.84,South,177,2.0,5.0,96,0.00,,,0.00,,2013-10-17 08:22:00,
2013-10-17 04:42:00,60.0,59.0,29.84,SE,145,2.0,4.0,96,0.00,,,0.00,,2013-10-17 08:42:00,
2013-10-17 04:52:00,59.0,58.0,29.84,SE,132,0.0,3.0,96,0.00,,,0.00,,2013-10-17 08:52:00,
2013-10-17 05:11:00,59.0,58.0,29.84,South,173,1.0,4.0,97,0.00,,,0.00,,2013-10-17 09:11:00,
2013-10-17 05:22:00,59.0,58.0,29.84,South,173,1.0,4.0,97,0.00,,,0.00,,2013-10-17 09:22:00,
2013-10-17 05:43:00,59.0,58.0,29.83,South,181,2.0,4.0,98,0.00,,,0.00,,2013-10-17 09:43:00,
2013-10-17 05:53:00,59.0,58.0,29.84,SSE,154,2.0,5.0,98,0.00,,,0.00,,2013-10-17 09:53:00,
2013-10-17 06:12:00,59.0,58.0,29.84,SSE,147,1.0,3.0,98,0.00,,,0.00,,2013-10-17 10:12:00,
2013-10-17 06:23:00,59.0,58.0,29.84,South,174,1.0,4.0,98,0.00,,,0.00,,2013-10-17 10:23:00,
2013-10-17 06:42:00,59.0,58.0,29.84,SE,137,0.0,3.0,98,0.00,,,0.00,,2013-10-17 10:42:00,
2013-10-17 06:53:00,59.0,58.0,29.84,SSE,159,2.0,4.0,98,0.00,,,0.00,,2013-10-17 10:53:00,
2013-10-17 07:12:00,60.0,59.0,29.84,SSE,154,1.0,3.0,98,0.00,,,0.00,,2013-10-17 11:12:00,
2013-10-17 07:22:00,60.0,59.0,29.84,SE,146,3.0,5.0,98,0.00,,,0.00,,2013-10-17 11:22:00,
2013-10-17 07:42:00,60.0,59.0,29.84,SSE,148,1.0,4.0,98,0.00,,,0.00,,2013-10-17 11:42:00,
2013-10-17 07:52:00,60.0,59.0,29.85,South,180,1.0,4.0,98,0.00,,,0.00,,2013-10-17 11:52:00,
2013-10-17 08:12:00,60.0,59.0,29.85,SSE,153,1.0,4.0,98,0.00,,,0.00,,2013-10-17 12:12:00,
2013-10-17 08:22:00,60.0,59.0,29.85,SE,144,1.0,4.0,98,0.00,,,0.00,,2013-10-17 12:22:00,
2013-10-17 08:42:00,60.0,59.0,29.85,South,187,2.0,5.0,98,0.00,,,0.00,,2013-10-17 12:42:00,
2013-10-17 08:52:00,60.0,59.0,29.86,SSE,152,1.0,4.0,98,0.00,,,0.00,,2013-10-17 12:52:00,
2013-10-17 09:11:00,60.0,59.0,29.86,SE,137,1.0,5.0,98,0.00,,,0.00,,2013-10-17 13:11:00,
2013-10-17 09:22:00,61.0,60.0,29.86,South,187,1.0,3.0,98,0.00,,,0.00,,2013-10-17 13:22:00,
2013-10-17 09:42:00,61.0,60.0,29.86,SSE,147,2.0,4.0,98,0.00,,,0.00,,2013-10-17 13:42:00,
2013-10-17 09:52:00,61.0,60.0,29.86,South,180,0.0,5.0,98,0.00,,,0.00,,2013-10-17 13:52:00,
2013-10-17 10:11:00,62.0,61.0,29.86,South,181,0.0,2.0,97,0.00,,,0.00,,2013-10-17 14:11:00,
2013-10-17 10:22:00,62.0,61.0,29.85,SSW,192,1.0,3.0,96,0.00,,,0.00,,2013-10-17 14:22:00,
2013-10-17 10:42:00,62.0,61.0,29.85,South,191,1.0,3.0,96,0.00,,,0.00,,2013-10-17 14:42:00,
2013-10-17 10:52:00,63.0,62.0,29.85,ESE,111,1.0,4.0,95,0.00,,,0.00,,2013-10-17 14:52:00,
2013-10-17 11:11:00,65.0,62.0,29.85,SW,218,4.0,6.0,89,0.00,,,0.00,,2013-10-17 15:11:00,
2013-10-17 11:22:00,66.0,62.0,29.84,SSE,156,4.0,6.0,87,0.00,,,0.00,,2013-10-17 15:22:00,
2013-10-17 11:43:00,66.0,62.0,29.85,ESE,110,1.0,5.0,86,0.00,,,0.00,,2013-10-17 15:43:00,
2013-10-17 11:53:00,67.0,61.0,29.84,South,174,2.0,5.0,81,0.00,,,0.00,,2013-10-17 15:53:00,
2013-10-17 12:04:00,67.0,61.0,29.84,South,174,2.0,5.0,81,0.00,,,0.00,,2013-10-17 16:04:00,
2013-10-17 12:12:00,67.0,61.0,29.84,South,174,2.0,5.0,81,0.00,,,0.00,,2013-10-17 16:12:00,
2013-10-17 12:23:00,68.0,60.0,29.83,SE,140,1.0,4.0,76,0.00,,,0.00,,2013-10-17 16:23:00,
2013-10-17 12:42:00,68.0,61.0,29.82,South,175,2.0,4.0,77,0.00,,,0.00,,2013-10-17 16:42:00,
2013-10-17 12:53:00,68.0,61.0,29.82,South,174,3.0,7.0,77,0.00,,,0.00,,2013-10-17 16:53:00,
2013-10-17 13:12:00,69.0,60.0,29.81,SSW,206,4.0,8.0,74,0.00,,,0.00,,2013-10-17 17:12:00,
2013-10-17 13:22:00,69.0,60.0,29.81,SSW,206,4.0,8.0,74,0.00,,,0.00,,2013-10-17 17:22:00,
2013-10-17 13:42:00,70.0,61.0,29.79,SE,124,2.0,5.0,72,0.00,,,0.00,,2013-10-17 17:42:00,
2013-10-17 13:53:00,71.0,59.0,29.78,South,177,3.0,8.0,66,0.00,,,0.00,,2013-10-17 17:53:00,
2013-10-17 14:12:00,72.0,60.0,29.78,SE,135,5.0,9.0,65,0.00,,,0.00,,2013-10-17 18:12:00,
2013-10-17 14:22:00,72.0,59.0,29.77,SSE,159,5.0,8.0,63,0.00,,,0.00,,2013-10-17 18:22:00,
2013-10-17 14:42:00,73.0,59.0,29.76,SSE,152,6.0,11.0,62,0.00,,,0.00,,2013-10-17 18:42:00,
2013-10-17 14:52:00,73.0,60.0,29.76,ESE,107,2.0,8.0,63,0.00,,,0.00,,2013-10-17 18:52:00,
2013-10-17 15:12:00,73.0,60.0,29.75,WSW,257,5.0,8.0,63,0.00,,,0.00,,2013-10-17 19:12:00,
2013-10-17 15:22:00,73.0,60.0,29.75,SSE,165,4.0,10.0,63,0.00,,,0.00,,2013-10-17 19:22:00,
2013-10-17 15:42:00,73.0,60.0,29.75,South,175,2.0,8.0,64,0.00,,,0.00,,2013-10-17 19:42:00,
2013-10-17 15:53:00,73.0,61.0,29.75,SE,135,5.0,10.0,65,0.00,,,0.00,,2013-10-17 19:53:00,
2013-10-17 16:11:00,72.0,60.0,29.75,South,176,3.0,7.0,67,0.00,,,0.00,,2013-10-17 20:11:00,
2013-10-17 16:22:00,72.0,60.0,29.75,South,175,4.0,8.0,67,0.00,,,0.00,,2013-10-17 20:22:00,
2013-10-17 16:42:00,71.0,60.0,29.75,SE,137,4.0,11.0,69,0.00,,,0.00,,2013-10-17 20:42:00,
2013-10-17 16:52:00,71.0,61.0,29.74,SSE,156,2.0,8.0,70,0.00,,,0.00,,2013-10-17 20:52:00,
2013-10-17 17:12:00,71.0,60.0,29.73,SSE,152,4.0,8.0,69,0.00,,,0.00,,2013-10-17 21:12:00,
2013-10-17 17:22:00,70.0,60.0,29.73,SSE,148,4.0,9.0,70,0.00,,,0.00,,2013-10-17 21:22:00,
2013-10-17 17:44:00,70.0,60.0,29.72,SW,227,2.0,8.0,71,0.00,,,0.00,,2013-10-17 21:44:00,
2013-10-17 17:54:00,70.0,60.0,29.72,SE,133,3.0,8.0,71,0.00,,,0.00,,2013-10-17 21:54:00,
2013-10-17 18:14:00,69.0,60.0,29.71,ESE,116,3.0,8.0,73,0.00,,,0.00,,2013-10-17 22:14:00,
2013-10-17 18:24:00,69.0,61.0,29.71,South,188,1.0,5.0,75,0.00,,,0.00,,2013-10-17 22:24:00,
2013-10-17 18:43:00,68.0,61.0,29.72,SSW,200,1.0,3.0,77,0.00,,,0.00,,2013-10-17 22:43:00,
2013-10-17 18:53:00,68.0,61.0,29.71,South,173,0.0,4.0,78,0.00,,,0.00,,2013-10-17 22:53:00,
2013-10-17 19:13:00,67.0,60.0,29.71,SSW,192,1.0,2.0,79,0.00,,,0.00,,2013-10-17 23:13:00,
2013-10-17 19:22:00,68.0,61.0,29.71,SSW,196,3.0,6.0,79,0.00,,,0.00,,2013-10-17 23:22:00,
2013-10-17 19:43:00,67.0,61.0,29.70,SSE,161,3.0,8.0,80,0.00,,,0.00,,2013-10-17 23:43:00,
2013-10-17 19:53:00,67.0,61.0,29.70,SE,135,2.0,9.0,81,0.00,,,0.00,,2013-10-17 23:53:00,
2013-10-17 20:12:00,67.0,62.0,29.70,ESE,123,2.0,6.0,83,0.00,,,0.00,,2013-10-18 00:12:00,
2013-10-17 20:22:00,66.0,62.0,29.69,South,175,3.0,6.0,87,0.00,,,0.00,,2013-10-18 00:22:00,
2013-10-17 20:42:00,65.0,62.0,29.68,SSW,195,0.0,5.0,90,0.01,,,0.01,,2013-10-18 00:42:00,
2013-10-17 20:53:00,65.0,62.0,29.68,SSW,206,1.0,4.0,91,0.01,,,0.01,,2013-10-18 00:53:00,
2013-10-17 21:12:00,65.0,63.0,29.69,SSE,166,3.0,9.0,92,0.01,,,0.01,,2013-10-18 01:12:00,
2013-10-17 21:22:00,64.0,62.0,29.68,SE,136,2.0,8.0,92,0.01,,,0.01,,2013-10-18 01:22:00,
2013-10-17 21:42:00,64.0,62.0,29.68,SE,134,2.0,6.0,93,0.00,,,0.01,,2013-10-18 01:42:00,
2013-10-17 21:53:00,64.0,62.0,29.68,SSE,152,4.0,9.0,94,0.00,,,0.01,,2013-10-18 01:53:00,
2013-10-17 22:11:00,64.0,62.0,29.68,ESE,115,2.0,6.0,94,0.00,,,0.01,,2013-10-18 02:11:00,
2013-10-17 22:22:00,64.0,62.0,29.69,SE,128,2.0,7.0,94,0.00,,,0.01,,2013-10-18 02:22:00,
2013-10-17 22:42:00,64.0,62.0,29.67,ESE,121,3.0,5.0,94,0.00,,,0.01,,2013-10-18 02:42:00,
2013-10-17 22:52:00,64.0,62.0,29.67,SE,139,1.0,4.0,94,0.00,,,0.01,,2013-10-18 02:52:00,
2013-10-17 23:11:00,64.0,62.0,29.66,SSE,158,1.0,6.0,93,0.00,,,0.01,,2013-10-18 03:11:00,
2013-10-17 23:22:00,64.0,62.0,29.65,SE,140,1.0,7.0,93,0.00,,,0.01,,2013-10-18 03:22:00,
2013-10-17 23:44:00,64.0,62.0,29.65,South,174,2.0,4.0,94,0.00,,,0.01,,2013-10-18 03:44:00,
2013-10-17 23:55:00,64.0,62.0,29.65,SSE,166,2.0,4.0,94,0.00,,,0.01,,2013-10-18 03:55:00,